Regional Weather Roundup
Issued by NWS

Home | Current Version | Previous Version | Text Only | Print | Product List | Glossary Off
Versions: 1 2 3 4 5 6 7 8 9 10 11 12 13 14 15 16 17 18 19 20 21 22 23 24 25 26 27 28 29 30 31 32 33 34 35 36 37 38 39 40 41 42 43 44 45 46 47 48 49 50

186
ASUS43 KDMX 260308
RWRIA

WEATHER ROUNDUP FOR IOWA
NATIONAL WEATHER SERVICE DES MOINES IA
1000 PM CDT MON JUL 25 2016

NOTE: "FAIR" INDICATES FEW OR NO CLOUDS BELOW 12,000 FEET WITH NO
SIGNIFICANT WEATHER AND/OR OBSTRUCTIONS TO VISIBILITY.

* - THESE STATIONS ARE NOT NWS STATIONS...THUS NOT UNDER NWS
QUALITY CONTROL.  THEY ALSO DO NOT REPORT WEATHER SUCH
AS PRECIPITATION OR FOG.

IAZ001>003-012>014-020>022-031>034-043>046-260400-
   NORTHWEST IOWA

CITY           SKY/WX    TMP DP  RH WIND       PRES   REMARKS
CARROLL *      CLEAR     70  68  94 CALM      30.08R
CHEROKEE *     CLEAR     71  68  88 CALM      30.08R
DENISON *      CLEAR     70  68  94 CALM      30.07R
LE MARS *      CLEAR     77  66  69 SE6       30.08R
SHELDON *      CLEAR     70  68  94 S3        30.07R
SIOUX CITY     CLEAR     75  66  73 S6        30.06R
SPENCER        CLEAR     72  67  84 S3        30.08R
STORM LAKE *   CLEAR     73  66  78 S3        30.10R
$$

IAZ055>058-069>071-079>083-090>094-260400-
   SOUTHWEST IOWA

CITY           SKY/WX    TMP DP  RH WIND       PRES   REMARKS
ATLANTIC *     CLEAR     70  66  88 N3        30.08R
CLARINDA *       N/A     68  68 100 MISG      30.10R
COUNCIL BLFS *   N/A     75  68  78 E3        30.09R
CRESTON *      CLEAR     72  66  83 E5        30.10R
HARLAN  *      CLEAR     68  66  94 CALM      30.12R
LAMONI         CLOUDY    71  65  81 CALM      30.08R
RED OAK *      CLEAR     72  68  88 CALM      30.08R
SHENANDOAH *   CLEAR     72  70  94 CALM      30.08R
$$

IAZ047>049-059>061-072>074-084-260400-
   CENTRAL IOWA

CITY           SKY/WX    TMP DP  RH WIND       PRES   REMARKS
AMES           CLEAR     70  67  90 CALM      30.07R
ANKENY *         N/A    N/A N/A N/A MISG        N/A
BOONE *          N/A     72  66  83 CALM      30.07R
CHARITON *       N/A    N/A N/A N/A MISG        N/A
DES MOINES     CLEAR     80  63  55 NE3       30.06R HX  81
GRINNELL*      PTCLDY    70  64  80 CALM      30.07R
KNOXVILLE *    CLEAR     77  63  61 NE3       30.05R
MARSHALLTOWN   CLEAR     71  65  81 N6        30.05R
NEWTON *       CLEAR     73  66  78 NE3       30.06R
PELLA *        CLEAR     69  63  81 CALM      30.07R
PERRY *          N/A     70  69  96 CALM      30.07R
$$

IAZ004>006-015-016-023>025-035-036-260400-
   NORTH CENTRAL IOWA

CITY           SKY/WX    TMP DP  RH WIND       PRES   REMARKS
ALGONA *       CLEAR     72  68  88 CALM      30.08R
ESTHERVILLE    CLEAR     71  68  90 SE6       30.07R
FORT DODGE *   CLEAR     72  66  83 CALM      30.09R
MASON CITY     CLEAR     68  66  93 CALM      30.09R
FOREST CITY *    N/A     68  68 100 CALM      30.07S
IOWA FALLS *     N/A     71  66  84 CALM      30.09R
$$

IAZ007>011-017>019-026>030-037>042-050>054-066-260400-
   NORTHEAST IOWA

CITY           SKY/WX    TMP DP  RH WIND       PRES   REMARKS
CEDAR RAPIDS   CLEAR     74  65  73 CALM      30.05R
CHARLES CITY * CLEAR     68  68 100 CALM      30.08R
CLINTON *      CLEAR     72  67  84 N6        30.04R
DECORAH *      PTCLDY    70  66  88 CALM      30.06S
DUBUQUE        CLEAR     71  64  78 CALM      30.06R
MONTICELLO *   CLEAR     68  66  94 CALM      30.05R
OELWEIN *      CLEAR     72  66  83 N5        30.07S
WATERLOO       CLEAR     72  65  78 CALM      30.05R
$$

IAZ064-065-067-068-078-260400-
   EAST CENTRAL IOWA

CITY           SKY/WX    TMP DP  RH WIND       PRES   REMARKS
DAVENPORT      CLEAR     70  66  87 N3        30.05R
IOWA CITY      CLEAR     73  65  75 CALM      30.05R
MT. PLEASANT *   N/A     73  70  89 N3        30.05R
MUSCATINE *    CLOUDY    73  68  83 CALM      30.04S
QUAD CITIES    CLOUDY    72  66  81 CALM      30.03R
$$

IAZ062-063-075>077-085>089-095>099-260400-
   SOUTHEAST IOWA

CITY           SKY/WX    TMP DP  RH WIND       PRES   REMARKS
BURLINGTON     CLOUDY    70  68  93 N3        30.04R
FAIRFIELD *    CLOUDY    72  66  83 CALM      30.05R
KEOKUK *       PTCLDY    73  70  88 CALM      30.03S
CENTERVILLE *    N/A     66  64  94 CALM      30.08R
OTTUMWA        CLOUDY    69  66  90 CALM      30.06R
WASHINGTON *   CLOUDY    70  68  94 CALM      30.06R
$$

ABBREVIATIONS USED IN REMARKS
   TC - TEMPERATURES IN CELSIUS
  WCI - WIND CHILL INDEX
   HX - HEAT INDEX
  VSB - VISIBILITY
$$





USA.gov is the U.S. government's official web portal to all federal, state and local government web resources and services.